Lapse_Rate
6.7 6.5 6.5 6.5 6.5 6.5 6.5 6.5 6.5 6.5 6.5 6.5 6.5 6.5 6.5 6.6 6.1 6.5 7.0 5.9 5.8 5.0 4.7 3.3 2.5 1.9 1.8 2.1 2.6 3.0 3.4 3.8 3.8 3.5 3.7 3.6 3.8 3.8 3.5 3.3 3.9 4.2 4.3 4.2
6.5 6.5 6.5 6.5 6.5 6.5 6.5 6.5 6.5 6.5 6.5 6.5 6.5 6.5 6.5 6.6 6.6 6.0 6.8 6.7 6.4 5.5 4.8 3.4 2.5 1.5 1.1 0.7 0.8 1.1 2.0 2.2 2.8 3.0 3.2 3.5 3.6 3.6 3.8 3.3 3.7 3.8 3.8 3.9
6.5 6.5 6.5 6.5 6.5 6.5 6.5 6.5 6.5 6.5 6.5 6.5 6.5 6.5 6.5 6.5 6.5 6.4 5.3 5.2 6.4 5.4 5.6 3.6 2.5 1.5 -0.2 -0.2 -0.1 -0.0 -0.0 0.2 0.5 1.1 1.4 1.6 2.1 2.3 2.9 2.6 2.8 2.2 2.2 2.9
6.5 6.6 6.5 6.5 6.5 6.5 6.5 6.5 6.5 6.5 6.5 6.5 6.5 6.5 6.5 6.5 6.5 6.5 6.8 6.6 6.3 4.1 3.4 2.9 1.9 1.2 -0.0 -1.0 -1.2 -0.8 -0.9 -0.7 -0.9 -0.1 1.3 2.1 2.5 2.8 1.0 1.0 0.9 1.5 1.4 1.9
6.5 6.5 6.5 6.5 6.5 6.5 6.5 6.5 6.5 6.5 6.5 6.5 6.5 6.5 6.5 6.5 6.5 6.5 6.6 6.5 5.7 3.8 4.3 3.7 2.3 1.2 0.6 -0.5 -0.7 -0.9 -0.9 -1.0 -1.1 -0.8 -0.1 0.6 0.8 0.2 -0.1 0.4 1.0 1.5 1.7 1.4
6.5 6.5 6.5 6.5 6.5 6.5 6.5 6.5 6.5 6.5 6.5 6.5 6.5 6.5 6.5 6.5 6.5 6.5 6.4 6.6 5.8 5.8 3.3 2.3 1.4 0.3 -0.3 -0.9 -0.7 -0.7 -0.6 -1.2 -1.3 -1.0 -0.8 -0.3 0.1 0.3 0.9 1.0 1.4 1.6 1.6 1.7
6.5 6.5 6.5 6.3 6.5 6.5 6.5 6.5 6.5 6.5 6.5 6.5 6.5 6.5 6.5 6.5 6.5 6.5 6.4 5.4 4.9 3.4 1.5 1.1 1.1 0.1 -0.9 -0.8 -0.6 -0.6 -0.4 -0.9 -0.9 -0.6 -0.4 -0.3 -0.1 0.3 0.6 0.7 0.8 0.9 1.3 1.6
6.5 6.5 6.5 6.5 6.5 6.5 6.5 6.5 6.5 6.5 6.5 6.5 6.5 6.5 6.5 6.5 6.0 5.4 5.2 4.6 3.6 3.6 2.3 1.9 1.7 0.5 0.0 -0.2 -0.2 0.0 -0.1 -0.5 -0.6 -0.4 -0.3 -0.3 -0.1 0.4 0.5 0.4 0.7 1.2 1.2 1.3
6.5 6.5 6.5 6.5 6.5 6.5 6.5 6.5 6.5 6.5 6.5 6.5 6.5 6.5 6.5 6.5 6.5 6.0 5.3 4.4 3.0 2.5 1.0 1.8 1.1 1.0 0.7 0.6 0.4 0.3 -0.0 -0.4 -0.3 -0.3 -0.2 -0.1 0.0 0.4 0.5 0.4 0.6 1.1 1.2 1.9
6.5 6.5 6.5 6.5 6.4 6.4 6.5 6.5 6.5 6.5 6.5 6.5 6.5 6.5 6.5 6.5 6.5 6.5 6.4 5.6 3.9 2.8 1.9 2.0 2.1 1.9 1.2 0.6 -0.3 -0.3 0.1 0.1 -0.3 -0.3 -0.1 0.2 0.2 0.4 0.7 1.0 1.1 1.1 1.2 1.4
6.5 6.5 6.5 6.5 6.5 6.5 6.5 6.5 6.5 6.5 6.5 6.5 6.5 6.5 6.5 6.5 6.5 6.5 6.4 5.0 4.1 3.2 3.0 2.8 2.4 1.4 0.3 -0.6 -0.6 -0.5 -0.3 -0.2 -0.1 -0.1 -0.0 0.3 0.6 0.8 1.2 1.5 1.3 1.2 1.3 1.3
6.5 6.5 6.5 6.5 6.5 6.5 6.5 6.5 6.5 6.5 6.5 6.5 6.5 6.5 6.5 6.5 6.4 6.0 5.2 3.9 3.7 3.5 3.5 2.7 1.9 0.4 -0.5 -0.8 -1.2 -0.7 -0.7 -0.0 0.0 -0.0 0.4 0.7 0.9 1.3 1.8 2.0 1.6 1.5 1.4 1.2
6.5 6.5 6.5 6.5 6.5 6.5 6.5 6.5 6.5 6.5 6.5 6.5 6.5 6.5 6.5 6.3 6.3 5.3 5.2 4.3 2.6 3.4 3.3 2.1 1.1 0.5 -0.2 -0.7 -0.8 -0.8 -0.8 -0.4 -0.4 -0.1 0.5 0.8 1.3 2.1 2.5 2.7 2.5 2.2 2.0 1.5
6.1 6.5 6.5 6.5 6.5 6.5 6.5 6.5 6.5 6.5 6.5 6.5 6.5 6.5 6.5 6.5 6.5 6.0 5.2 3.4 2.6 2.7 2.8 2.2 0.9 0.2 -0.3 -0.8 -0.7 -0.5 -0.2 0.0 0.2 0.2 0.7 1.4 2.3 2.9 3.4 3.9 4.0 3.9 3.5 3.0
6.5 6.5 6.5 6.5 6.5 6.5 6.5 6.5 6.5 6.5 6.5 6.5 6.5 6.5 6.5 6.5 6.5 5.6 4.1 3.4 2.7 2.3 2.3 2.1 1.2 0.0 -0.3 -0.5 -0.6 -0.7 0.0 0.7 0.7 0.7 1.8 2.9 3.6 4.0 4.0 3.9 3.6 3.4 3.5 3.5
6.5 6.5 6.5 6.5 6.5 6.5 6.5 6.5 6.5 6.5 6.5 6.5 6.5 6.5 6.5 6.6 5.5 4.7 3.9 3.6 3.1 2.6 2.2 1.8 0.8 0.2 -0.6 -0.7 -0.5 -0.4 0.2 1.2 1.6 1.9 2.9 3.8 3.8 3.5 3.2 2.9 2.8 3.1 3.2 3.0
6.5 6.5 6.5 6.5 6.5 6.5 6.5 6.5 6.5 6.5 6.5 6.5 6.5 6.5 6.5 6.5 6.3 5.7 4.7 3.6 3.3 3.0 2.2 1.6 0.7 -0.2 -0.7 -0.8 -0.6 -0.2 0.7 1.0 1.8 2.7 3.8 4.0 3.6 2.8 2.4 2.4 2.3 2.6 2.8 2.4
6.5 6.5 6.5 6.5 6.5 6.5 6.5 6.5 6.5 6.5 6.5 6.5 6.5 6.5 6.4 6.4 6.1 4.9 4.2 3.9 3.2 2.9 2.2 1.7 0.1 -1.1 -1.0 -1.1 -0.9 -0.1 0.2 1.0 2.0 3.5 4.4 3.8 3.2 2.5 2.1 2.0 1.8 1.7 1.8 2.2
6.4 6.5 6.5 6.5 6.5 6.5 6.5 6.5 6.5 6.5 6.5 6.5 6.5 6.5 5.9 5.2 5.0 5.3 4.8 5.0 4.7 2.2 2.5 1.4 0.0 -0.7 -1.6 -1.5 -1.0 -0.2 0.1 1.2 2.4 3.9 4.3 4.1 3.2 2.6 2.3 1.6 1.4 1.4 1.7 0.8
6.5 6.5 6.5 6.5 6.5 6.5 6.5 6.5 6.0 6.4 6.5 6.3 5.9 6.3 6.1 5.8 6.5 6.5 5.0 3.6 2.7 1.5 -0.3 -0.5 -1.6 -2.1 -1.5 -1.6 -0.8 -0.3 0.1 1.4 2.2 3.6 4.3 4.3 4.0 3.7 2.7 2.0 1.1 1.1 1.1 -0.1
6.5 6.5 6.5 6.5 6.5 6.5 6.5 6.2 5.5 6.5 6.5 5.6 5.8 5.2 5.1 6.5 5.6 5.0 3.8 3.4 1.6 0.4 -1.0 -1.7 -1.6 -1.8 -1.5 -1.5 -0.9 -0.5 0.0 0.8 2.4 3.4 4.2 3.9 3.6 3.2 2.9 1.9 1.1 0.1 -0.2 -1.3
6.5 6.5 6.5 6.5 6.5 6.5 5.7 6.4 6.5 6.3 5.4 5.7 6.2 6.1 5.8 4.4 3.3 3.6 3.1 2.2 0.4 -0.4 -1.3 -1.6 -1.7 -1.7 -1.7 -1.2 -0.5 -0.4 -0.0 0.9 1.4 2.4 3.4 3.5 3.0 2.9 2.4 1.6 -0.1 -0.5 -1.1 -1.0
6.5 6.5 6.5 6.5 6.5 6.1 5.6 6.5 5.7 5.2 6.1 6.0 5.5 5.1 4.9 4.4 3.8 3.7 3.1 1.7 0.8 -0.1 -1.2 -1.2 -0.8 -1.3 -1.2 -0.6 -0.2 -0.2 0.5 0.4 0.8 1.5 1.7 2.1 2.4 2.2 1.4 0.4 -0.7 -2.3 -2.2 -0.9
6.5 5.7 6.5 6.5 6.4 6.3 5.5 6.2 5.2 5.7 6.3 6.2 5.9 4.8 4.9 5.1 3.9 3.8 1.8 1.3 1.1 0.2 -0.3 -0.4 -0.2 -0.4 -0.7 -0.8 -0.5 0.6 0.0 0.2 0.5 0.8 0.7 0.9 1.1 0.8 0.4 -0.1 -1.1 -0.4 -0.9 -0.5
6.2 6.1 6.5 6.5 6.2 5.8 5.2 5.8 5.5 5.6 5.4 6.0 4.9 4.6 4.4 4.4 4.2 3.5 2.5 1.2 1.2 1.0 0.6 0.7 1.1 1.1 0.6 -0.1 0.0 0.0 -0.1 0.1 0.1 0.4 0.5 0.2 0.7 1.1 -0.2 -0.6 -0.8 -0.3 -0.4 -0.1
5.6 6.5 6.5 6.5 5.9 6.6 6.5 6.7 5.8 5.4 5.6 5.7 5.7 4.1 3.4 4.2 4.0 3.9 2.9 1.8 1.3 1.1 1.3 0.4 0.6 0.9 0.8 0.3 -0.2 -0.1 -0.2 -0.1 -0.0 -0.1 0.0 0.0 -0.0 -0.1 -0.4 -0.6 -0.5 0.5 1.1 1.2
Wind_Speed
1 8 16 10 6 4 7 5 6 3 9 7 8 4 7 7 4 9 13 10 11 11 9 5 2 2 1 4 7 8 8 8 6 3 3 4 4 4 5 9 12 12 11 12
3 3 7 10 7 5 8 6 3 2 9 7 9 13 13 10 7 9 14 17 14 11 6 6 2 1 1 3 4 4 6 6 5 3 2 1 2 2 2 2 6 8 10 11
3 5 6 10 6 7 2 8 5 5 4 2 7 6 9 6 5 10 14 14 12 11 9 5 4 1 1 3 4 5 5 5 4 3 2 2 1 1 0 1 1 2 5 4
3 9 11 7 8 5 3 5 7 10 9 5 2 4 4 12 15 15 16 17 15 10 5 5 5 4 4 3 4 6 6 7 5 4 3 2 1 1 1 1 2 4 4 4
2 12 16 12 7 6 4 5 5 4 4 3 1 2 4 6 18 18 15 14 14 7 9 9 9 7 5 5 5 6 7 8 7 7 6 4 3 1 1 1 3 2 3 4
5 2 3 5 2 1 7 6 6 4 2 2 4 4 4 5 8 4 12 17 17 15 11 9 5 8 7 6 6 6 8 7 6 6 6 6 4 2 2 2 3 4 3 3
5 3 2 3 6 4 4 5 2 1 1 4 1 3 10 6 6 5 6 8 7 6 6 8 12 12 10 9 7 6 7 6 5 6 6 5 4 2 2 3 3 5 4 3
3 7 1 5 3 6 3 4 4 6 4 3 1 5 5 4 4 4 5 6 5 4 8 12 12 11 10 10 8 7 7 6 5 5 4 3 3 2 2 2 3 2 3 4
4 4 3 3 1 2 3 1 3 6 3 2 3 4 9 5 5 4 6 4 6 6 6 9 10 11 10 9 8 8 7 6 5 4 3 3 2 2 2 3 2 2 3 4
3 5 4 2 0 4 3 6 2 2 3 3 2 3 4 2 3 7 6 6 6 4 7 9 10 10 7 8 7 7 6 5 4 3 2 1 1 1 2 2 3 3 3 4
4 3 3 3 2 6 3 1 4 3 2 3 1 4 6 5 3 6 9 7 5 5 7 9 8 7 8 7 7 6 5 5 3 2 1 1 1 1 1 1 2 3 3 4
3 4 4 2 1 3 3 3 4 3 4 1 1 6 3 6 4 4 6 5 1 2 5 8 7 7 6 7 6 6 5 4 3 2 2 1 1 1 1 2 2 2 3 4
5 2 4 2 3 2 3 4 3 3 3 5 3 4 3 2 4 3 2 1 4 5 5 5 6 8 8 7 6 5 5 4 4 3 3 2 2 2 2 2 3 4 4 5
5 3 4 5 4 4 5 5 5 3 2 4 13 11 11 13 11 8 4 3 5 7 9 9 9 9 9 7 7 6 5 5 5 4 3 3 2 3 3 3 4 5 6 6
3 3 2 1 1 2 3 4 9 12 13 10 13 16 10 9 11 9 5 3 5 7 9 11 11 10 9 8 7 6 5 5 5 5 4 3 3 4 4 5 5 6 6 5
4 1 2 4 3 1 4 7 7 13 17 13 18 21 15 20 8 6 8 6 8 9 12 11 9 9 11 11 9 7 7 7 6 6 5 4 4 4 5 6 6 6 5 6
4 4 2 2 2 3 6 9 12 4 5 8 13 19 12 12 10 8 10 8 11 12 12 13 14 13 11 11 9 9 8 7 6 6 5 5 5 5 5 6 6 6 5 6
5 4 2 2 2 2 4 2 1 8 6 7 9 14 13 14 14 8 8 8 9 12 12 11 9 8 8 8 8 7 7 8 7 7 6 6 6 6 5 5 6 6 4 5
3 4 3 3 2 6 2 1 2 2 3 3 5 10 10 8 6 16 14 13 14 10 11 8 8 8 8 10 9 9 8 7 8 7 7 6 7 7 7 6 6 5 5 4
4 5 3 2 1 3 4 2 2 2 2 3 5 8 8 4 4 10 6 7 9 7 7 9 10 7 10 9 10 10 9 8 8 7 7 7 7 7 7 7 6 4 5 5
2 2 3 3 3 6 5 4 5 2 3 6 3 8 7 4 6 8 9 5 1 3 6 8 10 10 9 10 10 9 9 8 7 7 7 7 6 6 6 6 4 4 5 4
5 4 3 1 3 4 5 2 3 4 6 7 10 7 9 10 11 7 6 3 3 6 8 6 8 8 8 9 9 8 8 6 8 9 8 7 7 6 6 7 5 5 5 4
0 2 1 6 4 1 5 4 4 2 4 6 9 16 12 10 7 5 4 1 2 4 6 5 7 8 7 9 8 9 7 9 9 9 8 8 7 8 8 7 6 4 5 5
2 4 1 5 3 8 5 2 4 3 8 13 9 13 13 10 9 6 2 3 3 4 6 5 7 8 9 8 8 7 9 9 9 9 9 8 8 8 7 5 6 5 5 4
2 5 5 5 5 14 2 16 13 18 14 9 14 12 14 10 9 6 4 5 5 5 5 6 7 7 8 9 9 8 9 10 9 8 8 8 6 7 6 6 6 7 5 6
2 2 1 4 7 9 14 13 19 15 13 13 13 18 15 9 8 5 4 5 6 7 7 7 7 7 8 9 9 10 10 11 10 9 7 7 6 6 6 6 5 12 12 12
Wind_Direction
287 171 187 163 150 126 118 121 121 134 173 175 191 208 251 230 228 240 239 239 266 274 298 268 288 315 163 203 201 205 196 198 183 185 201 221 227 228 236 237 246 248 249 245
124 137 149 126 128 126 138 125 155 71 170 167 181 220 228 204 221 224 223 240 247 257 279 276 278 154 198 153 171 176 189 175 183 173 163 177 183 220 250 263 253 255 258 254
108 157 162 142 134 115 86 162 176 151 139 250 163 244 231 228 230 224 242 248 237 227 249 252 235 233 103 111 126 120 114 111 104 139 125 103 74 57 3 28 40 30 340 317
7 148 158 162 154 129 139 187 156 142 139 194 188 266 237 217 229 219 219 237 225 209 208 236 201 194 172 138 105 97 94 89 70 69 95 120 141 170 67 334 328 321 329 319
67 168 156 170 158 145 191 145 130 108 99 123 351 296 267 210 227 225 225 234 250 194 205 218 203 172 169 145 125 111 98 80 72 74 82 97 102 81 325 313 325 334 329 330
256 84 98 170 129 181 134 94 58 61 87 283 210 194 251 214 233 232 222 219 225 231 215 195 163 153 148 140 133 124 109 88 78 79 73 78 77 38 3 350 338 336 329 327
85 82 59 60 102 35 87 91 87 108 191 222 147 199 264 258 240 220 237 247 234 235 202 182 177 174 159 157 149 128 115 99 85 82 75 67 62 45 6 346 330 329 334 340
113 139 26 346 110 155 172 149 149 173 188 212 37 229 246 257 338 302 282 274 297 227 213 195 181 165 159 154 148 133 127 115 98 91 81 64 48 36 17 351 332 325 329 329
121 93 141 60 125 95 182 164 132 104 30 69 215 289 286 317 316 330 285 274 262 254 208 178 155 155 152 152 150 143 132 119 108 100 96 71 46 28 4 352 347 344 352 346
171 106 33 108 244 42 136 154 73 11 138 235 276 269 235 270 311 316 324 313 280 229 169 155 149 153 154 148 139 132 130 126 121 110 88 75 37 9 355 5 19 16 13 10
134 82 116 107 216 167 128 132 55 112 120 186 268 261 212 208 240 291 304 307 272 219 174 153 148 151 150 140 136 133 129 130 132 127 110 79 22 7 353 51 30 25 27 23
196 120 130 134 90 125 105 171 151 146 234 131 139 258 202 220 253 245 312 312 339 176 161 147 149 150 159 156 151 153 146 151 161 160 160 156 157 151 135 105 77 65 66 54
185 94 104 117 157 352 188 201 152 123 71 188 192 250 170 264 320 10 283 291 146 150 158 144 155 176 179 179 175 172 171 178 175 171 169 165 152 145 123 121 110 91 88 79
90 109 149 177 186 131 171 203 168 162 157 196 235 267 276 298 290 300 299 220 198 180 185 189 183 196 189 183 183 185 192 188 175 159 158 164 161 141 126 119 111 104 95 91
78 95 74 314 108 127 179 196 202 217 227 223 262 258 272 253 262 269 281 239 211 207 204 202 200 189 187 185 189 186 191 188 173 154 166 167 159 140 127 113 107 105 104 103
6 109 91 9 20 210 250 240 220 228 242 254 263 276 274 281 290 272 248 238 227 225 220 207 197 187 189 188 191 182 183 184 170 163 164 155 141 135 125 121 117 109 96 98
152 138 117 238 340 290 278 237 213 208 232 226 248 253 281 276 266 265 256 225 233 234 222 203 201 198 187 186 175 184 179 162 163 161 159 149 148 133 132 126 125 109 106 100
132 110 86 182 3 356 256 358 206 216 265 234 271 278 279 277 284 266 241 232 236 235 222 209 190 179 175 166 166 165 163 164 163 166 165 155 145 141 140 136 123 116 112 114
101 113 83 117 194 285 12 27 124 151 314 200 235 271 282 297 297 273 247 233 240 223 221 199 172 163 157 162 160 161 161 165 167 172 170 161 153 156 162 146 137 131 130 109
111 98 103 135 130 256 240 259 202 119 286 225 215 269 274 314 304 292 285 230 228 207 175 161 152 137 153 159 158 161 168 172 178 171 169 164 161 165 163 155 146 140 136 125
130 153 178 183 233 285 252 276 150 79 288 336 280 280 282 238 236 282 313 306 232 169 149 132 144 155 157 154 156 164 166 181 172 160 160 161 156 153 154 145 139 131 125 123
171 150 206 168 194 282 353 2 38 299 310 308 328 294 300 285 289 285 306 286 159 136 123 130 135 142 146 155 159 164 178 165 155 159 160 158 152 153 154 150 140 134 146 167
75 183 223 186 219 72 13 282 99 19 297 321 318 324 300 295 284 305 309 231 171 145 135 134 140 137 151 165 170 169 176 160 160 163 164 161 158 159 161 155 165 166 186 181
340 24 274 360 47 335 302 46 0 318 319 315 313 320 310 296 294 277 182 188 184 163 154 145 147 157 170 178 178 177 162 162 163 168 169 168 169 165 160 163 177 188 192 197
313 358 338 281 330 338 283 333 329 322 328 325 319 317 308 296 289 265 241 189 180 168 158 170 174 177 188 180 190 180 170 170 174 172 172 176 179 179 179 197 193 201 210 200
12 58 352 265 300 276 285 306 308 312 311 318 317 316 313 292 283 267 246 209 179 181 171 183 204 200 186 185 192 187 176 178 178 180 181 186 185 193 192 200 210 229 232 226